Powrót do katalogu

STARLINK-35799

AktywnyŁącznośćVLEO
NORAD 66290·PAYLOAD·🇺🇸 United States

Wystrzelony Oct 31, 2025 z Vandenberg Space Force Base

Loading…

Następne Przeloty (najbliższe 24 godziny)

TLE

ŚwieżeSource: CelesTrak SupGP

Epoka: Sep 14, 2026, 21:31 UTC

1 66290C 25247AB  26257.89701389  .00032443  00000+0  95900-3 0  2578
2 66290  53.1606  28.1043 0001388  80.8639 342.5519 15.34358527    11

Śledź STARLINK-35799 w czasie rzeczywistym z AllMySat

Download on the App Store